Regional Weather Roundup
Issued by NWS Goodland, KS

Home | Current Version | Previous Version | Graphics & Text | Print | Product List | Glossary On
Versions: 1 2 3 4 5 6 7 8 9 10 11 12 13 14 15 16 17 18 19 20 21 22 23 24 25 26 27 28 29 30 31 32 33 34 35 36 37 38 39 40 41 42 43 44 45 46 47 48 49 50
000
ASUS43 KGLD 221159
RWRGLD

GOODLAND FORECAST AREA HOURLY WEATHER ROUNDUP
NATIONAL WEATHER SERVICE GOODLAND KS
600 AM MDT TUE JUL 22 2014

...OFFICIAL OBSERVATIONS...

CITY           SKY/WX    TMP DP  RH WIND       PRES   REMARKS
GOODLAND KS    CLEAR     67  60  78 SW3       30.10S
HILL CITY KS   CLEAR     66  61  84 S3        30.07R
IMPERIAL NEB   PTCLDY    69  60  73 NE10      30.10R
MCCOOK NEB     CLEAR     68  63  84 E3        30.08F
AKRON CO       CLEAR     71  54  54 SW15      30.17R
BURLINGTON CO  CLEAR     65  57  75 W12       30.13F
LIMON CO       CLEAR     56  52  86 N5        30.24R
$$

...UNOFFICIAL OBSERVATIONS...

CITY           SKY/WX    TMP DP  RH WIND       PRES   REMARKS
COLBY KS       CLEAR     66  63  88 S3        30.09S
GOVE KS          N/A     65  32  29 MISG        N/A
LENORA KS        N/A     69  32  25 MISG        N/A
NORTON KS      CLEAR     70  59  68 NW13      30.07R
SHARON SPRINGS   N/A     64  60  86 CALM        N/A
WAKEENEY KS      N/A     70  58  65 MISG        N/A
KIT CARSON CO    N/A     64  56  77 CALM        N/A
YUMA CO          N/A     71  58  63 SW12G18     N/A
$$


USA.gov is the U.S. government's official web portal to all federal, state and local government web resources and services.